Weather History for Rifle, CO

Change the Weather History Date:

Wednesday, February 6, 2013

  Actual Average Record
Temperature  
Mean Temperature 30 °F 28 °F  
Max Temperature 41 °F 40 °F 62 °F (1934)
Min Temperature 19 °F 17 °F -32 °F (1989)
Degree Days  
Heating Degree Days 35 37  
Month to date heating degree days 227 226  
Since 1 July heating degree days 4225 4261  
Cooling Degree Days 0 0  
Month to date cooling degree days 0 0  
Year to date cooling degree days 0 0  
Moisture  
Dew Point 23 °F    
Average Humidity 71    
Maximum Humidity 89    
Minimum Humidity 52    
Precipitation  
Precipitation T in 0.02 in 0.29 in (1976)
Month to date precipitation T 0.13  
Year to date precipitation 0.70 0.94  
Sea Level Pressure  
Sea Level Pressure 30.07 in    
Wind  
Wind Speed 4 mph (SW)    
Max Wind Speed 21 mph    
Max Gust Speed 24 mph    
Visibility 10 miles    
Events Rain    
T = Trace of Precipitation, MM = Missing Value Source: NWS Daily Summary

Daily Weather History Graph

Daily Weather History Graph

Search for Another Location

Airport:

Trip Planner

Search our weather history database for the weather conditions in past years. The results will help you decide how hot, cold, wet, or windy it might be!

Date:

Astronomy

Feb. 06, 2013 Rise Set
Actual Time 7:13 AM MST 5:37 PM MST
Civil Twilight 6:45 AM MST 6:05 PM MST
Nautical Twilight 6:13 AM MST 6:37 PM MST
Astronomical Twilight 5:41 AM MST 7:08 PM MST
Moon 3:59 AM MST (2/6) 1:59 PM MST (2/6)
Length of Visible Light 11h 20m
Length of Day
10h 24m
Waning Crescent, 16% of the Moon is Illuminated
Feb 6
Waning Crescent
Feb 10
New
Feb 17
First Quarter
Feb 25
Full
Mar 4
Last Quarter

Hourly Weather History & Observations

Time (MST) Temp. Windchill Dew Point Humidity Pressure Visibility Wind Dir Wind Speed Gust Speed Precip Events Conditions
12:53 AM 23.0 °F 15.8 °F 17.1 °F 78% 30.05 in 10.0 mi Variable 5.8 mph - N/A   Clear
1:53 AM 19.9 °F - 15.1 °F 81% 30.06 in 10.0 mi Calm Calm - N/A   Clear
2:53 AM 19.9 °F 11.1 °F 15.1 °F 81% 30.05 in 10.0 mi South 6.9 mph - N/A   Clear
3:53 AM 21.0 °F - 16.0 °F 81% 30.02 in 10.0 mi Calm Calm - N/A   Partly Cloudy
4:53 AM 21.0 °F - 16.0 °F 81% 30.03 in 10.0 mi Calm Calm - N/A   Clear
5:53 AM 21.9 °F - 18.0 °F 85% 30.06 in 10.0 mi Calm Calm - N/A   Overcast
6:53 AM 21.9 °F 17.2 °F 18.0 °F 85% 30.06 in 10.0 mi South 3.5 mph - N/A   Mostly Cloudy
7:53 AM 23.0 °F - 19.0 °F 85% 30.08 in 10.0 mi Calm Calm - N/A   Scattered Clouds
8:53 AM 28.0 °F - 21.0 °F 75% 30.06 in 10.0 mi Calm Calm - N/A   Scattered Clouds
9:53 AM 28.9 °F - 21.9 °F 75% 30.06 in 10.0 mi Calm Calm - N/A   Mostly Cloudy
10:53 AM 32.0 °F - 21.0 °F 64% 30.05 in 10.0 mi Calm Calm - N/A   Overcast
11:53 AM 34.0 °F 28.8 °F 23.0 °F 64% 30.04 in 10.0 mi ESE 5.8 mph - N/A   Overcast
12:53 PM 37.9 °F - 21.9 °F 53% 30.00 in 10.0 mi Calm Calm - N/A   Mostly Cloudy
1:53 PM 37.9 °F - 21.9 °F 53% 30.01 in 10.0 mi Calm Calm - N/A   Overcast
2:53 PM 39.9 °F 35.8 °F 24.1 °F 53% 30.00 in 10.0 mi South 5.8 mph - N/A   Overcast
3:53 PM 39.9 °F 34.5 °F 25.0 °F 55% 30.01 in 10.0 mi West 8.1 mph - N/A   Overcast
4:53 PM 39.9 °F 31.4 °F 28.0 °F 63% 30.03 in 10.0 mi WNW 16.1 mph - N/A   Overcast
5:53 PM 39.0 °F 29.9 °F 28.9 °F 67% 30.06 in 10.0 mi WNW 17.3 mph - N/A   Overcast
6:53 PM 36.0 °F 31.1 °F 30.0 °F 79% 30.11 in 10.0 mi West 5.8 mph - 0.00 in Rain Light Rain
7:53 PM 36.0 °F - 30.9 °F 82% 30.13 in 10.0 mi Calm Calm - 0.00 in   Overcast
8:53 PM 35.1 °F 30.1 °F 30.9 °F 85% 30.13 in 10.0 mi South 5.8 mph - N/A   Overcast
9:53 PM 34.0 °F - 30.0 °F 85% 30.14 in 10.0 mi Calm Calm - N/A   Partly Cloudy
10:53 PM 30.0 °F - 27.0 °F 88% 30.16 in 10.0 mi Calm Calm - N/A   Clear
11:53 PM 28.9 °F 21.1 °F 24.1 °F 82% 30.17 in 10.0 mi SSW 8.1 mph - N/A   Clear